Terminal Aerodrome Forecast
Issued by NWS Anchorage, AK

Home | Current Version | Previous Version | Text Only | Print | Product List | Glossary On
Versions: 1 2 3 4 5 6 7 8 9 10 11 12 13 14 15 16 17 18 19 20 21 22 23 24 25 26 27 28 29 30 31 32 33 34 35 36 37 38 39 40 41 42 43 44 45
000
FTAK31 PANC 022116 AAB
TAFANC
TAF AMD
PANC 022116Z 0221/0324 28005KT P6SM VCSH BKN025 OVC080
     FM022300 30006KT P6SM SCT030 BKN080
     FM030100 22006KT P6SM FEW040 BKN090=

USA.gov is the U.S. government's official web portal to all federal, state and local government web resources and services.